Location: *
(50.2903°S, 172.5375°W)
Time: 18:22:56
(UTC+00:00)

Cosmos 1758 - Pass Details

Date: 17 November 2019
Orbit: 541 x 562 km, 82.5° (Epoch: 09 December)

Event Time Altitude Azimuth Distance (km) Brightness Sun altitude
Exits shadow 13:13:31 31° 336° (NNW) 1,000 4.0 -16.0°
Maximum altitude 13:15:22 71° 259° (WSW) 600 3.4 -15.8°
Drops below altitude 10° 13:19:29 10° 174° (S) 1,867 7.1 -15.5°
Sets 13:21:41 0° 171° (S) 2,767 8.2 -15.3°
